"Pseudo-MPEC" for X74296

Created 2021 Sep 20 16:07:20 UT using Find_Orb

Click here for an explanation of pseudo-MPECs

 
 Astrometry: 
     X74296   C2021 09 10\2?_Xg@=aM]yq+7KaXGamFT9lO^AstrometryvX5XD.=Wu8Y9S`PD29
     X74296   C2021 09 10RW[i)w*8I*mcwB!sTjQredacted;xyIUN;4gnOclickF`SjiPlNiD29
     X74296   C2021 09 10;X6XUX4(2XZd1]here@`forx.'l]ylDS\g]N;explanationDtV)D29

Station data:
(D29) Purple Mountain Observatory, XuYi Station  (N32.734366 E118.463900)
   China.  Observers H. B. Zhao, B. Li, G. Zhaori, R. Q. Hong, L. F. Hu.
   Measurers H. B. Zhao, B. Li. H. Lu, G. Zhaori. 1.04-m f/1.8 Schmidt + CCD.

Orbital elements:  X74296
   Perihelion 2021 Sep 4.841595 +/- 46.0768 TT = 20:11:53 (JD 2459462.341595)
Epoch 2021 Sep 11.0 TT = JDT 2459468.5   Earth MOID: 0.3720   AutoNEOCP
M   1.70723424 +/- 17.735863        (J2000 ecliptic)
n   0.27722021 +/- 0.254245         Peri.   77.88370 +/- 105.38039
a   2.32944675 +/- 1.42423          Node   268.02907 +/- 51.017205
e   0.4106984 +/- 0.248476          Incl.    3.59796 +/- 2.2356484
P   3.56                   H 21.1   G  0.15   U 11.8  SR
q 1.37274664 +/- 0.377486    Q 3.28614685 +/- 80.442
From 3 observations 2021 Sept. 10 (40.7 min); mean residual 0".17
Residuals in arcseconds: 
210910 D29  .13-  .11-    210910 D29  .26+  .22+    210910 D29  .13-  .12-    

Ephemerides (geocentric):
Date (UTC) HH   RA              Dec         delta   r     elong  mag " sig PA
---- -- -- --  -------------   -----------  ------ ------ -----  --- ---- ---
2021 09 20 16  23 27 10.639   +10 40 25.64  .38385 1.3808 166.9 20.4  48d   3
2021 09 20 17  23 27 11.102   +10 40 23.00  .38391 1.3808 166.9 20.4  48d   3
2021 09 20 18  23 27 11.567   +10 40 20.32  .38396 1.3809 166.9 20.4  48d   3
2021 09 20 19  23 27 12.032   +10 40 17.62  .38402 1.3809 166.9 20.4  48d   3
2021 09 20 20  23 27 12.499   +10 40 14.88  .38407 1.3809 166.9 20.4  48d   3
2021 09 20 21  23 27 12.966   +10 40 12.11  .38413 1.3810 166.9 20.4  48d   3
2021 09 20 22  23 27 13.435   +10 40 09.31  .38419 1.3810 166.9 20.4  48d   3
2021 09 20 23  23 27 13.905   +10 40 06.47  .38424 1.3811 166.9 20.4  48d   3
2021 09 21 00  23 27 14.375   +10 40 03.61  .38430 1.3811 166.9 20.4  48d   3
2021 09 21 01  23 27 14.847   +10 40 00.71  .38436 1.3812 166.9 20.4  48d   3
2021 09 21 02  23 27 15.320   +10 39 57.78  .38442 1.3812 166.9 20.4  48d   3
2021 09 21 03  23 27 15.794   +10 39 54.81  .38448 1.3812 166.9 20.4  48d   3
2021 09 21 04  23 27 16.270   +10 39 51.82  .38453 1.3813 166.9 20.4  48d   3
2021 09 21 05  23 27 16.746   +10 39 48.79  .38459 1.3813 166.9 20.4  48d   3
2021 09 21 06  23 27 17.224   +10 39 45.73  .38465 1.3814 166.9 20.4  48d   3
2021 09 21 07  23 27 17.702   +10 39 42.64  .38471 1.3814 166.9 20.4  48d   3
2021 09 21 08  23 27 18.182   +10 39 39.52  .38477 1.3815 166.9 20.4  48d   3
2021 09 21 09  23 27 18.663   +10 39 36.36  .38483 1.3815 166.9 20.4  48d   3
2021 09 21 10  23 27 19.145   +10 39 33.18  .38489 1.3816 166.9 20.4  48d   3
2021 09 21 11  23 27 19.628   +10 39 29.96  .38495 1.3816 166.9 20.4  48d   3
2021 09 21 12  23 27 20.112   +10 39 26.71  .38501 1.3816 166.9 20.4  48d   3
2021 09 21 13  23 27 20.598   +10 39 23.43  .38507 1.3817 166.9 20.4  48d   3
2021 09 21 14  23 27 21.084   +10 39 20.12  .38513 1.3817 166.9 20.4  49d   3
2021 09 21 15  23 27 21.572   +10 39 16.78  .38519 1.3818 166.9 20.4  49d   3
2021 09 21 16  23 27 22.061   +10 39 13.40  .38525 1.3818 166.9 20.4  49d   3
2021 09 21 17  23 27 22.551   +10 39 10.00  .38531 1.3819 166.9 20.4  49d   3
2021 09 21 18  23 27 23.043   +10 39 06.56  .38537 1.3819 166.9 20.4  49d   3
2021 09 21 19  23 27 23.535   +10 39 03.09  .38543 1.3820 166.9 20.4  49d   3
2021 09 21 20  23 27 24.029   +10 38 59.59  .38550 1.3820 166.9 20.4  49d   3
2021 09 21 21  23 27 24.524   +10 38 56.06  .38556 1.3820 166.9 20.4  49d   3
2021 09 21 22  23 27 25.020   +10 38 52.50  .38562 1.3821 166.8 20.4  49d   3
2021 09 21 23  23 27 25.517   +10 38 48.91  .38568 1.3821 166.8 20.4  49d   3
2021 09 22 00  23 27 26.016   +10 38 45.29  .38575 1.3822 166.8 20.4  49d   3
2021 09 22 01  23 27 26.516   +10 38 41.64  .38581 1.3822 166.8 20.4  49d   3
2021 09 22 02  23 27 27.017   +10 38 37.95  .38587 1.3823 166.8 20.4  49d   3
2021 09 22 03  23 27 27.519   +10 38 34.24  .38594 1.3823 166.8 20.4  49d   3
2021 09 22 04  23 27 28.022   +10 38 30.50  .38600 1.3824 166.8 20.4  49d   3
2021 09 22 05  23 27 28.527   +10 38 26.72  .38606 1.3824 166.8 20.4  49d   3
2021 09 22 06  23 27 29.033   +10 38 22.92  .38613 1.3825 166.8 20.4  49d   3
2021 09 22 07  23 27 29.540   +10 38 19.08  .38619 1.3825 166.8 20.4  49d   3
2021 09 22 08  23 27 30.049   +10 38 15.21  .38626 1.3825 166.8 20.4  49d   3
2021 09 22 09  23 27 30.559   +10 38 11.32  .38632 1.3826 166.8 20.4  49d   3
2021 09 22 10  23 27 31.070   +10 38 07.39  .38639 1.3826 166.8 20.4  49d   3
2021 09 22 11  23 27 31.582   +10 38 03.43  .38645 1.3827 166.8 20.4  49d   3
2021 09 22 12  23 27 32.095   +10 37 59.45  .38652 1.3827 166.8 20.4  49d   3
2021 09 22 13  23 27 32.610   +10 37 55.43  .38658 1.3828 166.8 20.4  49d   3
2021 09 22 14  23 27 33.126   +10 37 51.39  .38665 1.3828 166.8 20.4  49d   3
2021 09 22 15  23 27 33.644   +10 37 47.31  .38671 1.3829 166.8 20.4  49d   3